Location: Lecco
(45.8566°N, 9.3977°E)
Time: 22:43:24
(UTC+02:00)

Vanguard 2 - Visible Passes

Search period start: 19 July 2019 00:00
Search period end: 29 July 2019 00:00
Orbit: 553 x 2938 km, 32.9° (Epoch: 19 July)

Date Brightness Start Highest point End Pass type
(mag) Time Alt. Az. Time Alt. Az. Time Alt. Az.
19 Jul 10.1 00:46:22 10° SW 01:02:50 17° ESE 01:04:32 10° ESE visible
19 Jul 9.1 03:04:10 29° SSW 03:06:00 32° S 03:11:40 10° SE visible
19 Jul 9.3 05:09:21 10° WSW 05:13:28 16° SSW 05:16:46 10° S visible
19 Jul 10.3 22:54:25 10° SSW 23:05:33 25° SSE 23:12:10 15° ESE visible
20 Jul 9.6 01:03:44 10° SW 01:18:37 27° SE 01:22:28 10° ESE visible
20 Jul 9.1 03:15:13 10° WSW 03:23:40 31° SSW 03:29:16 10° SE visible
20 Jul 10.2 23:11:00 10° SSW 23:23:21 30° SSE 23:32:12 10° ESE visible
21 Jul 9.4 01:21:20 10° WSW 01:32:53 38° S 01:40:18 10° ESE visible
21 Jul 9.2 03:33:16 10° WSW 03:41:17 28° SSW 03:46:42 10° SE visible
21 Jul 10.0 23:28:00 10° SW 23:41:11 35° SSE 23:50:20 10° ESE visible
22 Jul 9.4 01:39:04 10° WSW 01:50:40 39° S 01:58:02 10° ESE visible
22 Jul 9.3 03:51:26 10° WSW 03:58:48 24° SSW 04:03:58 10° SSE visible
22 Jul 10.7 21:36:31 10° SSW 21:48:56 26° SSE 21:58:49 10° ESE visible
22 Jul 9.9 23:45:16 10° SW 23:59:00 39° S 00:08:18 10° ESE visible
23 Jul 9.4 01:56:57 10° WSW 02:08:24 38° S 02:15:42 10° SE visible
23 Jul 9.5 04:09:49 10° WSW 04:16:15 20° SSW 04:20:58 10° SSE visible
23 Jul 10.5 21:52:55 10° SSW 22:06:40 31° SSE 22:17:17 10° ESE visible
24 Jul 9.8 00:02:46 10° WSW 00:16:50 42° S 00:26:11 10° ESE visible
24 Jul 9.4 02:14:55 10° WSW 02:26:04 36° SSW 02:33:14 10° SE visible
24 Jul 9.7 04:28:34 10° WSW 04:33:35 16° SW 04:37:32 10° S visible
24 Jul 10.4 22:09:46 10° SW 22:24:26 36° SSE 22:35:30 10° ESE visible
25 Jul 9.7 00:20:27 10° WSW 00:34:38 44° S 00:41:35 21° ESE visible
25 Jul 9.6 02:33:00 10° W 02:50:24 11° SE 02:50:39 10° SE visible
25 Jul 9.9 04:52:04 11° SW 04:52:04 11° SW 04:53:02 10° SSW visible
25 Jul 10.3 22:26:54 10° SW 22:42:14 41° SSE 22:53:34 10° ESE visible
26 Jul 9.7 00:38:16 10° WSW 00:52:25 44° S 00:57:32 29° SE visible
26 Jul 10.0 02:51:13 10° W 03:09:58 - SE 02:58:52 27° SW visible
26 Jul 10.2 22:44:18 10° SW 23:00:02 45° S 23:11:30 10° ESE visible
27 Jul 9.7 00:56:11 10° WSW 01:10:09 43° SSW 01:13:37 36° SSE visible
27 Jul 10.3 03:09:36 10° W 03:14:58 20° WSW 03:14:58 20° WSW visible
27 Jul 10.1 23:01:53 10° WSW 23:17:52 47° S 23:28:25 13° ESE visible
28 Jul 9.7 01:14:12 10° W 01:27:49 41° SSW 01:29:46 38° S visible
28 Jul 10.7 03:28:18 10° W 03:31:07 15° WSW 03:31:07 15° WSW visible
28 Jul 10.6 21:09:04 10° SW 21:24:51 41° SSE 21:38:04 10° E visible
28 Jul 10.1 23:19:36 10° WSW 23:35:40 48° S 23:44:35 20° ESE visible
